Location: Oberkirch
(48.5323°N, 8.0787°E)
Time: 15:32:20
(UTC+00:00)

Tiros 1 despin weight - Pass Details

Date: 12 February 2026
Orbit: 556 x 593 km, 48.2° (Epoch: 5 March)

Event Time Altitude Azimuth Distance (km) Brightness Sun altitude
Rises 20:13:13 0° 277° (W) 2,736 ? -34.7°
Reaches altitude 10° 20:15:28 10° 276° (W) 1,843 ? -35.1°
Enters shadow 20:16:10 15° 275° (W) 1,570 ? -35.2°
